Location: Fuglau
(48.6333°N, 15.5500°E)
Time: 19:31:23
(UTC+00:00)

STARLINK-1017 - Pass Details

Date: 27 February 2020
Orbit: 549 x 551 km, 53.0° (Epoch: 05 April)

Event Time Altitude Azimuth Distance (km) Brightness Sun altitude
Rises 18:35:41 0° 288° (WNW) 2,724 8.7 -20.2°
Reaches altitude 10° 18:37:59 10° 294° (WNW) 1,830 7.4 -20.6°
Maximum altitude 18:42:02 49° 10° (N) 717 4.1 -21.3°
Enters shadow 18:42:30 46° 33° (NNE) 743 4.0 -21.3°
